Time,TemperatureF,DewpointF,PressureIn,WindDirection,WindDirectionDegrees,WindSpeedMPH,WindSpeedGustMPH,Humidity,HourlyPrecipIn,Conditions,Clouds,dailyrainin,SoftwareType,DateUTC
2013-11-05 00:01:00,31.8,23.5,30.87,East,96,2.0,2.0,71,0.00,,,0.00,meteohub,2013-11-05 05:01:00,
2013-11-05 00:02:00,32.0,23.7,30.87,East,96,1.0,2.0,71,0.00,,,0.00,meteohub,2013-11-05 05:02:00,
2013-11-05 00:07:00,32.2,23.9,30.87,East,88,1.0,2.0,71,0.00,,,0.00,meteohub,2013-11-05 05:07:00,
2013-11-05 00:13:00,32.2,23.9,30.88,East,94,2.0,2.0,71,0.00,,,0.00,meteohub,2013-11-05 05:13:00,
2013-11-05 00:18:00,32.2,24.3,30.87,East,94,2.0,2.0,72,0.00,,,0.00,meteohub,2013-11-05 05:18:00,
2013-11-05 00:23:00,32.0,23.7,30.88,East,86,0.0,2.0,71,0.00,,,0.00,meteohub,2013-11-05 05:23:00,
2013-11-05 00:28:00,32.0,24.1,30.88,East,91,2.0,2.0,72,0.00,,,0.00,meteohub,2013-11-05 05:28:00,
2013-11-05 00:33:00,32.2,23.9,30.87,East,82,2.0,2.0,71,0.00,,,0.00,meteohub,2013-11-05 05:33:00,
2013-11-05 00:38:00,32.2,23.9,30.87,East,94,2.0,3.0,71,0.00,,,0.00,meteohub,2013-11-05 05:38:00,
2013-11-05 00:43:00,32.4,24.3,30.88,East,94,2.0,3.0,72,0.00,,,0.00,meteohub,2013-11-05 05:43:00,
2013-11-05 00:48:00,32.4,24.3,30.88,East,79,1.0,2.0,72,0.00,,,0.00,meteohub,2013-11-05 05:48:00,
2013-11-05 00:53:00,32.4,24.3,30.88,ENE,58,2.0,2.0,72,0.00,,,0.00,meteohub,2013-11-05 05:53:00,
2013-11-05 00:58:00,32.5,24.4,30.89,ENE,74,1.0,3.0,72,0.00,,,0.00,meteohub,2013-11-05 05:58:00,
2013-11-05 01:03:00,32.5,24.4,30.88,East,99,2.0,3.0,72,0.00,,,0.00,meteohub,2013-11-05 06:03:00,
2013-11-05 01:08:00,32.5,24.4,30.89,East,86,2.0,3.0,72,0.00,,,0.00,meteohub,2013-11-05 06:08:00,
2013-11-05 01:13:00,32.5,24.4,30.88,East,92,2.0,3.0,72,0.00,,,0.00,meteohub,2013-11-05 06:13:00,
2013-11-05 01:18:00,32.7,24.6,30.88,East,96,2.0,3.0,72,0.00,,,0.00,meteohub,2013-11-05 06:18:00,
2013-11-05 01:23:00,32.5,24.4,30.89,East,79,0.0,3.0,72,0.00,,,0.00,meteohub,2013-11-05 06:23:00,
2013-11-05 01:28:00,32.5,24.4,30.88,East,99,1.0,3.0,72,0.00,,,0.00,meteohub,2013-11-05 06:28:00,
2013-11-05 01:33:00,32.7,24.6,30.88,ESE,117,2.0,3.0,72,0.00,,,0.00,meteohub,2013-11-05 06:33:00,
2013-11-05 01:38:00,32.7,24.6,30.88,East,101,1.0,2.0,72,0.00,,,0.00,meteohub,2013-11-05 06:38:00,
2013-11-05 01:43:00,32.7,24.6,30.88,East,101,2.0,2.0,72,0.00,,,0.00,meteohub,2013-11-05 06:43:00,
2013-11-05 01:48:00,32.7,24.6,30.88,East,96,2.0,2.0,72,0.00,,,0.00,meteohub,2013-11-05 06:48:00,
2013-11-05 01:53:00,32.7,25.0,30.88,East,99,2.0,2.0,73,0.00,,,0.00,meteohub,2013-11-05 06:53:00,
2013-11-05 01:58:00,32.9,24.8,30.88,East,98,1.0,2.0,72,0.00,,,0.00,meteohub,2013-11-05 06:58:00,
2013-11-05 02:03:00,32.9,24.8,30.88,East,93,1.0,3.0,72,0.00,,,0.00,meteohub,2013-11-05 07:03:00,
2013-11-05 02:08:00,32.9,24.8,30.88,East,101,2.0,3.0,72,0.00,,,0.00,meteohub,2013-11-05 07:08:00,
2013-11-05 02:13:00,32.9,24.8,30.88,East,101,0.0,3.0,72,0.00,,,0.00,meteohub,2013-11-05 07:13:00,
2013-11-05 02:18:00,32.7,25.0,30.87,East,88,1.0,3.0,73,0.00,,,0.00,meteohub,2013-11-05 07:18:00,
2013-11-05 02:23:00,32.9,24.8,30.87,East,98,2.0,2.0,72,0.00,,,0.00,meteohub,2013-11-05 07:23:00,
2013-11-05 02:28:00,33.1,25.0,30.87,East,86,1.0,2.0,72,0.00,,,0.00,meteohub,2013-11-05 07:28:00,
2013-11-05 02:33:00,33.1,25.0,30.87,East,99,1.0,2.0,72,0.00,,,0.00,meteohub,2013-11-05 07:33:00,
2013-11-05 02:38:00,33.1,25.3,30.87,East,79,1.0,3.0,73,0.00,,,0.00,meteohub,2013-11-05 07:38:00,
2013-11-05 02:43:00,33.1,25.3,30.87,East,99,1.0,3.0,73,0.00,,,0.00,meteohub,2013-11-05 07:43:00,
2013-11-05 02:48:00,33.1,25.3,30.87,East,90,1.0,3.0,73,0.00,,,0.00,meteohub,2013-11-05 07:48:00,
2013-11-05 02:53:00,33.1,25.3,30.87,East,98,1.0,2.0,73,0.00,,,0.00,meteohub,2013-11-05 07:53:00,
2013-11-05 02:58:00,33.1,25.3,30.87,East,99,1.0,2.0,73,0.00,,,0.00,meteohub,2013-11-05 07:58:00,
2013-11-05 03:03:00,33.1,25.3,30.87,East,88,1.0,2.0,73,0.00,,,0.00,meteohub,2013-11-05 08:03:00,
2013-11-05 03:08:00,33.8,26.1,30.86,East,101,1.0,2.0,73,0.00,,,0.00,meteohub,2013-11-05 08:08:00,
2013-11-05 07:20:00,32.5,27.1,30.88,North,-999,-999.0,-999.0,80,-99.99,,,0.00,meteohub,2013-11-05 12:20:00,
2013-11-05 07:26:00,33.1,27.5,30.87,North,-999,-999.0,-999.0,80,0.00,,,0.00,meteohub,2013-11-05 12:26:00,
2013-11-05 07:31:00,33.6,27.9,30.88,ESE,104,2.0,2.0,79,0.00,,,0.00,meteohub,2013-11-05 12:31:00,
2013-11-05 07:36:00,34.2,28.0,30.88,East,101,2.0,3.0,78,0.00,,,0.00,meteohub,2013-11-05 12:36:00,
2013-11-05 07:41:00,34.3,27.9,30.87,ESE,105,1.0,3.0,77,0.00,,,0.00,meteohub,2013-11-05 12:41:00,
2013-11-05 07:46:00,34.7,28.2,30.87,East,98,0.0,3.0,77,0.00,,,0.00,meteohub,2013-11-05 12:46:00,
2013-11-05 07:51:00,35.1,28.2,30.87,East,101,1.0,2.0,76,0.00,,,0.00,meteohub,2013-11-05 12:51:00,
2013-11-05 07:56:00,35.4,28.6,30.87,East,101,1.0,2.0,76,0.00,,,0.00,meteohub,2013-11-05 12:56:00,
2013-11-05 08:01:00,36.0,29.1,30.87,East,82,1.0,2.0,76,0.00,,,0.00,meteohub,2013-11-05 13:01:00,
2013-11-05 08:06:00,36.3,29.1,30.87,ESE,104,1.0,3.0,75,0.00,,,0.00,meteohub,2013-11-05 13:06:00,
2013-11-05 08:11:00,36.9,29.3,30.87,ESE,108,2.0,3.0,74,0.00,,,0.00,meteohub,2013-11-05 13:11:00,
2013-11-05 08:16:00,37.2,29.7,30.87,East,101,2.0,3.0,74,0.00,,,0.00,meteohub,2013-11-05 13:16:00,
2013-11-05 08:21:00,37.6,29.7,30.87,East,93,2.0,3.0,73,0.00,,,0.00,meteohub,2013-11-05 13:21:00,
2013-11-05 08:26:00,37.9,29.7,30.87,East,82,2.0,3.0,72,0.00,,,0.00,meteohub,2013-11-05 13:26:00,
2013-11-05 08:31:00,38.5,30.2,30.88,East,94,1.0,3.0,72,0.00,,,0.00,meteohub,2013-11-05 13:31:00,
2013-11-05 08:36:00,39.0,30.7,30.87,ESE,120,1.0,3.0,72,0.00,,,0.00,meteohub,2013-11-05 13:36:00,
2013-11-05 08:41:00,39.6,30.9,30.87,ESE,104,1.0,2.0,71,0.00,,,0.00,meteohub,2013-11-05 13:41:00,
2013-11-05 08:46:00,39.9,30.9,30.87,ESE,102,0.0,2.0,70,0.00,,,0.00,meteohub,2013-11-05 13:46:00,
2013-11-05 08:51:00,40.5,30.7,30.87,SE,138,0.0,3.0,68,0.00,,,0.00,meteohub,2013-11-05 13:51:00,
2013-11-05 08:56:00,41.0,31.3,30.87,ESE,105,2.0,3.0,68,0.00,,,0.00,meteohub,2013-11-05 13:56:00,
2013-11-05 09:01:00,41.2,31.1,30.87,ENE,58,2.0,3.0,67,0.00,,,0.00,meteohub,2013-11-05 14:01:00,
2013-11-05 09:06:00,41.5,31.8,30.87,SSE,166,0.0,4.0,68,0.00,,,0.00,meteohub,2013-11-05 14:06:00,
2013-11-05 09:11:00,42.1,32.0,30.87,East,99,3.0,4.0,67,0.00,,,0.00,meteohub,2013-11-05 14:11:00,
2013-11-05 09:16:00,42.1,32.0,30.88,ENE,58,2.0,5.0,67,0.00,,,0.00,meteohub,2013-11-05 14:16:00,
2013-11-05 09:21:00,42.4,32.2,30.87,ENE,68,1.0,5.0,67,0.00,,,0.00,meteohub,2013-11-05 14:21:00,
2013-11-05 09:26:00,43.0,32.7,30.87,SSE,166,2.0,5.0,67,0.00,,,0.00,meteohub,2013-11-05 14:26:00,
2013-11-05 09:31:00,43.5,33.3,30.87,ESE,102,2.0,5.0,67,0.00,,,0.00,meteohub,2013-11-05 14:31:00,
2013-11-05 09:36:00,43.9,33.3,30.87,SSE,160,3.0,5.0,66,0.00,,,0.00,meteohub,2013-11-05 14:36:00,
2013-11-05 09:42:00,44.1,33.4,30.87,ESE,104,1.0,5.0,66,0.00,,,0.00,meteohub,2013-11-05 14:42:00,
2013-11-05 09:47:00,44.2,33.6,30.87,ESE,111,2.0,7.0,66,0.00,,,0.00,meteohub,2013-11-05 14:47:00,
2013-11-05 09:52:00,44.2,33.3,30.88,ESE,114,0.0,7.0,65,0.00,,,0.00,meteohub,2013-11-05 14:52:00,
2013-11-05 09:57:00,44.8,33.8,30.87,ESE,123,2.0,6.0,65,0.00,,,0.00,meteohub,2013-11-05 14:57:00,
2013-11-05 10:02:00,45.1,34.5,30.87,South,184,3.0,6.0,66,0.00,,,0.00,meteohub,2013-11-05 15:02:00,
2013-11-05 10:07:00,45.1,34.5,30.87,East,99,2.0,7.0,66,0.00,,,0.00,meteohub,2013-11-05 15:07:00,
2013-11-05 10:12:00,45.5,34.9,30.87,ESE,107,1.0,7.0,66,0.00,,,0.00,meteohub,2013-11-05 15:12:00,
2013-11-05 10:17:00,45.7,35.1,30.87,ENE,61,0.0,7.0,66,0.00,,,0.00,meteohub,2013-11-05 15:17:00,
2013-11-05 10:22:00,45.9,35.1,30.87,East,79,1.0,8.0,66,0.00,,,0.00,meteohub,2013-11-05 15:22:00,
2013-11-05 10:27:00,46.4,35.2,30.87,ENE,74,3.0,8.0,65,0.00,,,0.00,meteohub,2013-11-05 15:27:00,
2013-11-05 10:32:00,46.4,34.9,30.87,SE,129,6.0,8.0,64,0.00,,,0.00,meteohub,2013-11-05 15:32:00,
2013-11-05 10:37:00,46.6,35.1,30.87,South,183,6.0,6.0,64,0.00,,,0.00,meteohub,2013-11-05 15:37:00,
2013-11-05 10:42:00,46.6,35.1,30.87,SE,146,4.0,7.0,64,0.00,,,0.00,meteohub,2013-11-05 15:42:00,
2013-11-05 10:47:00,46.9,35.4,30.87,SSE,163,0.0,9.0,64,0.00,,,0.00,meteohub,2013-11-05 15:47:00,
2013-11-05 10:52:00,47.5,36.0,30.86,SSW,205,4.0,9.0,64,0.00,,,0.00,meteohub,2013-11-05 15:52:00,
2013-11-05 10:57:00,47.5,36.0,30.86,WSW,256,1.0,5.0,64,0.00,,,0.00,meteohub,2013-11-05 15:57:00,
2013-11-05 11:02:00,48.2,36.7,30.86,SW,225,2.0,5.0,64,0.00,,,0.00,meteohub,2013-11-05 16:02:00,
2013-11-05 11:07:00,48.4,36.3,30.86,West,262,0.0,5.0,63,0.00,,,0.00,meteohub,2013-11-05 16:07:00,
2013-11-05 11:12:00,48.2,36.7,30.86,SSW,197,3.0,7.0,64,0.00,,,0.00,meteohub,2013-11-05 16:12:00,
2013-11-05 11:17:00,48.2,37.0,30.86,West,273,2.0,7.0,65,0.00,,,0.00,meteohub,2013-11-05 16:17:00,
2013-11-05 11:22:00,48.2,37.0,30.85,ESE,123,7.0,7.0,65,0.00,,,0.00,meteohub,2013-11-05 16:22:00,
2013-11-05 11:27:00,48.6,36.5,30.85,SW,226,0.0,8.0,63,0.00,,,0.00,meteohub,2013-11-05 16:27:00,
2013-11-05 11:32:00,49.5,37.8,30.85,South,170,4.0,8.0,64,0.00,,,0.00,meteohub,2013-11-05 16:32:00,
2013-11-05 11:37:00,49.3,36.9,30.85,WSW,250,1.0,9.0,62,0.00,,,0.00,meteohub,2013-11-05 16:37:00,
2013-11-05 11:42:00,48.7,36.3,30.85,SSW,208,2.0,9.0,62,0.00,,,0.00,meteohub,2013-11-05 16:42:00,
2013-11-05 11:47:00,48.6,35.8,30.84,NE,43,0.0,9.0,61,0.00,,,0.00,meteohub,2013-11-05 16:47:00,
2013-11-05 11:52:00,49.1,36.3,30.84,West,259,0.0,7.0,61,0.00,,,0.00,meteohub,2013-11-05 16:52:00,
2013-11-05 11:57:00,49.5,37.0,30.84,WSW,250,1.0,3.0,62,0.00,,,0.00,meteohub,2013-11-05 16:57:00,
2013-11-05 12:02:00,49.5,37.0,30.84,WSW,252,2.0,6.0,62,0.00,,,0.00,meteohub,2013-11-05 17:02:00,
2013-11-05 12:07:00,49.6,37.2,30.84,ENE,76,3.0,6.0,62,0.00,,,0.00,meteohub,2013-11-05 17:07:00,
2013-11-05 12:12:00,49.6,36.7,30.84,SE,142,3.0,7.0,61,0.00,,,0.00,meteohub,2013-11-05 17:12:00,
2013-11-05 12:17:00,49.3,36.3,30.83,WSW,240,2.0,7.0,61,0.00,,,0.00,meteohub,2013-11-05 17:17:00,
2013-11-05 12:22:00,49.6,36.7,30.83,SE,134,3.0,7.0,61,0.00,,,0.00,meteohub,2013-11-05 17:22:00,
2013-11-05 12:27:00,50.4,37.8,30.82,WNW,285,2.0,7.0,62,0.00,,,0.00,meteohub,2013-11-05 17:27:00,
2013-11-05 12:32:00,50.4,37.4,30.82,West,264,3.0,7.0,61,0.00,,,0.00,meteohub,2013-11-05 17:32:00,
2013-11-05 14:43:00,51.3,37.0,30.79,North,-999,-999.0,-999.0,58,-99.99,,,0.00,meteohub,2013-11-05 19:43:00,
2013-11-05 14:48:00,51.3,37.4,30.79,North,-999,-999.0,-999.0,59,0.00,,,0.00,meteohub,2013-11-05 19:48:00,
2013-11-05 14:53:00,51.1,37.2,30.78,East,91,2.0,3.0,59,0.00,,,0.00,meteohub,2013-11-05 19:53:00,
2013-11-05 14:59:00,50.9,37.0,30.78,SSW,213,0.0,3.0,59,0.00,,,0.00,meteohub,2013-11-05 19:59:00,
2013-11-05 15:04:00,50.7,36.9,30.78,SW,218,1.0,3.0,59,0.00,,,0.00,meteohub,2013-11-05 20:04:00,
2013-11-05 15:09:00,50.5,37.2,30.78,ESE,111,1.0,6.0,60,0.00,,,0.00,meteohub,2013-11-05 20:09:00,
2013-11-05 15:14:00,50.0,36.7,30.78,SSE,148,1.0,6.0,60,0.00,,,0.00,meteohub,2013-11-05 20:14:00,
2013-11-05 15:19:00,49.6,37.6,30.78,ESE,122,3.0,6.0,63,0.00,,,0.00,meteohub,2013-11-05 20:19:00,
2013-11-05 15:24:00,48.9,37.2,30.78,SSE,163,0.0,5.0,64,0.00,,,0.00,meteohub,2013-11-05 20:24:00,
2013-11-05 15:29:00,48.7,37.6,30.78,SSW,203,2.0,7.0,65,0.00,,,0.00,meteohub,2013-11-05 20:29:00,
2013-11-05 15:34:00,48.6,37.4,30.78,East,96,3.0,7.0,65,0.00,,,0.00,meteohub,2013-11-05 20:34:00,
2013-11-05 15:39:00,48.2,37.4,30.77,SSE,162,1.0,7.0,66,0.00,,,0.00,meteohub,2013-11-05 20:39:00,
2013-11-05 15:44:00,48.0,37.2,30.77,WSW,248,0.0,5.0,66,0.00,,,0.00,meteohub,2013-11-05 20:44:00,
2013-11-05 15:49:00,48.0,37.6,30.77,SE,125,2.0,5.0,67,0.00,,,0.00,meteohub,2013-11-05 20:49:00,
2013-11-05 15:54:00,47.8,37.4,30.77,SE,139,0.0,5.0,67,0.00,,,0.00,meteohub,2013-11-05 20:54:00,
2013-11-05 15:59:00,47.5,37.0,30.77,South,169,0.0,5.0,67,0.00,,,0.00,meteohub,2013-11-05 20:59:00,
2013-11-05 16:04:00,47.3,37.2,30.77,East,84,0.0,4.0,68,0.00,,,0.00,meteohub,2013-11-05 21:04:00,
2013-11-05 16:09:00,47.1,37.0,30.77,SE,145,0.0,4.0,68,0.00,,,0.00,meteohub,2013-11-05 21:09:00,
2013-11-05 16:14:00,46.9,37.2,30.77,SSE,148,0.0,3.0,69,0.00,,,0.00,meteohub,2013-11-05 21:14:00,
2013-11-05 16:19:00,46.8,37.6,30.77,SW,232,0.0,7.0,70,0.00,,,0.00,meteohub,2013-11-05 21:19:00,
2013-11-05 16:24:00,46.6,37.4,30.76,SSE,163,0.0,7.0,70,0.00,,,0.00,meteohub,2013-11-05 21:24:00,
2013-11-05 16:29:00,46.2,37.4,30.77,SE,146,0.0,5.0,71,0.00,,,0.00,meteohub,2013-11-05 21:29:00,
2013-11-05 16:34:00,46.0,37.2,30.77,ESE,122,0.0,4.0,71,0.00,,,0.00,meteohub,2013-11-05 21:34:00,
2013-11-05 16:39:00,45.9,37.4,30.77,SE,143,0.0,2.0,72,0.00,,,0.00,meteohub,2013-11-05 21:39:00,
2013-11-05 16:44:00,45.7,37.6,30.76,SE,145,0.0,2.0,73,0.00,,,0.00,meteohub,2013-11-05 21:44:00,
2013-11-05 16:49:00,45.3,37.2,30.76,SE,145,0.0,1.0,73,0.00,,,0.00,meteohub,2013-11-05 21:49:00,
2013-11-05 16:54:00,45.0,37.2,30.76,SE,145,0.0,1.0,74,0.00,,,0.00,meteohub,2013-11-05 21:54:00,
2013-11-05 16:59:00,44.8,37.4,30.76,SE,145,0.0,1.0,75,0.00,,,0.00,meteohub,2013-11-05 21:59:00,
2013-11-05 17:04:00,44.4,37.0,30.76,SE,145,0.0,1.0,75,0.00,,,0.00,meteohub,2013-11-05 22:04:00,
2013-11-05 17:09:00,44.1,37.0,30.76,SE,145,0.0,1.0,76,0.00,,,0.00,meteohub,2013-11-05 22:09:00,
2013-11-05 17:14:00,43.9,36.9,30.76,SE,145,0.0,1.0,76,0.00,,,0.00,meteohub,2013-11-05 22:14:00,
2013-11-05 17:19:00,43.7,37.0,30.76,SE,145,0.0,1.0,77,0.00,,,0.00,meteohub,2013-11-05 22:19:00,
2013-11-05 17:24:00,43.3,36.7,30.77,SE,145,0.0,0.0,77,0.00,,,0.00,meteohub,2013-11-05 22:24:00,
2013-11-05 17:29:00,43.2,36.7,30.77,SE,145,0.0,0.0,78,0.00,,,0.00,meteohub,2013-11-05 22:29:00,
2013-11-05 17:34:00,43.0,36.9,30.77,SE,145,0.0,0.0,79,0.00,,,0.00,meteohub,2013-11-05 22:34:00,
2013-11-05 17:39:00,43.0,36.9,30.77,SE,145,0.0,0.0,79,0.00,,,0.00,meteohub,2013-11-05 22:39:00,
2013-11-05 17:44:00,42.8,36.7,30.77,SE,145,0.0,0.0,79,0.00,,,0.00,meteohub,2013-11-05 22:44:00,
2013-11-05 17:49:00,42.6,36.5,30.77,SE,145,0.0,0.0,79,0.00,,,0.00,meteohub,2013-11-05 22:49:00,
2013-11-05 17:54:00,42.6,36.9,30.77,SE,145,0.0,0.0,80,0.00,,,0.00,meteohub,2013-11-05 22:54:00,
2013-11-05 17:59:00,42.4,36.7,30.77,SE,131,0.0,1.0,80,0.00,,,0.00,meteohub,2013-11-05 22:59:00,
2013-11-05 18:04:00,42.4,36.7,30.77,SE,131,0.0,1.0,80,0.00,,,0.00,meteohub,2013-11-05 23:04:00,
2013-11-05 18:09:00,42.4,36.7,30.77,SE,131,0.0,1.0,80,0.00,,,0.00,meteohub,2013-11-05 23:09:00,
2013-11-05 18:14:00,42.6,36.9,30.77,ESE,120,0.0,1.0,80,0.00,,,0.00,meteohub,2013-11-05 23:14:00,
2013-11-05 18:19:00,42.8,37.0,30.77,ESE,121,0.0,1.0,80,0.00,,,0.00,meteohub,2013-11-05 23:19:00,
2013-11-05 18:24:00,43.0,37.2,30.77,ESE,121,0.0,1.0,80,0.00,,,0.00,meteohub,2013-11-05 23:24:00,
2013-11-05 18:29:00,42.8,37.0,30.77,ESE,120,0.0,1.0,80,0.00,,,0.00,meteohub,2013-11-05 23:29:00,
2013-11-05 18:34:00,42.8,37.0,30.76,ESE,123,0.0,1.0,80,0.00,,,0.00,meteohub,2013-11-05 23:34:00,
2013-11-05 18:39:00,42.8,37.0,30.76,ESE,123,0.0,1.0,80,0.00,,,0.00,meteohub,2013-11-05 23:39:00,
2013-11-05 18:44:00,42.8,37.0,30.77,ESE,123,0.0,1.0,80,0.00,,,0.00,meteohub,2013-11-05 23:44:00,
2013-11-05 18:49:00,43.0,37.2,30.76,ESE,111,0.0,1.0,80,0.00,,,0.00,meteohub,2013-11-05 23:49:00,
2013-11-05 18:54:00,43.0,37.2,30.76,SSE,149,0.0,1.0,80,0.00,,,0.00,meteohub,2013-11-05 23:54:00,
2013-11-05 18:59:00,42.8,37.0,30.76,SSE,149,0.0,1.0,80,0.00,,,0.00,meteohub,2013-11-05 23:59:00,
2013-11-05 19:04:00,42.6,36.9,30.76,SSE,151,0.0,1.0,80,0.00,,,0.00,meteohub,2013-11-06 00:04:00,
2013-11-05 19:09:00,42.8,37.0,30.76,SSE,151,0.0,1.0,80,0.00,,,0.00,meteohub,2013-11-06 00:09:00,
2013-11-05 19:14:00,42.8,37.0,30.77,SSE,150,0.0,1.0,80,0.00,,,0.00,meteohub,2013-11-06 00:14:00,
2013-11-05 19:19:00,43.0,37.2,30.76,SE,142,0.0,0.0,80,0.00,,,0.00,meteohub,2013-11-06 00:19:00,
2013-11-05 19:24:00,43.2,37.4,30.77,SE,142,0.0,1.0,80,0.00,,,0.00,meteohub,2013-11-06 00:24:00,
2013-11-05 19:29:00,43.2,37.4,30.76,SE,143,0.0,1.0,80,0.00,,,0.00,meteohub,2013-11-06 00:29:00,
2013-11-05 19:34:00,43.3,37.6,30.77,SE,142,0.0,1.0,80,0.00,,,0.00,meteohub,2013-11-06 00:34:00,
2013-11-05 19:39:00,43.3,37.6,30.77,SE,142,0.0,0.0,80,0.00,,,0.00,meteohub,2013-11-06 00:39:00,
2013-11-05 19:44:00,43.5,37.4,30.77,SE,141,0.0,0.0,79,0.00,,,0.00,meteohub,2013-11-06 00:44:00,
2013-11-05 19:49:00,43.9,37.8,30.77,SE,141,0.0,0.0,79,0.00,,,0.00,meteohub,2013-11-06 00:49:00,
2013-11-05 19:54:00,43.9,37.8,30.77,SE,141,0.0,0.0,79,0.00,,,0.00,meteohub,2013-11-06 00:54:00,
2013-11-05 19:59:00,44.1,37.9,30.77,SE,141,0.0,0.0,79,0.00,,,0.00,meteohub,2013-11-06 00:59:00,
2013-11-05 20:04:00,44.1,37.9,30.77,SE,131,0.0,1.0,79,0.00,,,0.00,meteohub,2013-11-06 01:04:00,
2013-11-05 20:09:00,44.2,38.1,30.76,SE,131,0.0,1.0,79,0.00,,,0.00,meteohub,2013-11-06 01:09:00,
2013-11-05 20:14:00,44.1,37.6,30.76,SE,131,0.0,1.0,78,0.00,,,0.00,meteohub,2013-11-06 01:14:00,
2013-11-05 20:20:00,44.1,37.9,30.76,SE,131,0.0,1.0,79,0.00,,,0.00,meteohub,2013-11-06 01:20:00,
2013-11-05 20:25:00,44.1,37.9,30.76,SE,131,0.0,0.0,79,0.00,,,0.00,meteohub,2013-11-06 01:25:00,
2013-11-05 20:30:00,44.1,37.9,30.76,SE,131,0.0,0.0,79,0.00,,,0.00,meteohub,2013-11-06 01:30:00,
2013-11-05 20:35:00,44.1,37.9,30.75,SE,131,0.0,0.0,79,0.00,,,0.00,meteohub,2013-11-06 01:35:00,
2013-11-05 20:40:00,44.1,37.9,30.76,SE,131,0.0,1.0,79,0.00,,,0.00,meteohub,2013-11-06 01:40:00,
2013-11-05 20:45:00,44.1,37.9,30.75,SE,138,0.0,1.0,79,0.00,,,0.00,meteohub,2013-11-06 01:45:00,
2013-11-05 20:50:00,44.1,37.9,30.75,SE,138,0.0,1.0,79,0.00,,,0.00,meteohub,2013-11-06 01:50:00,
2013-11-05 20:55:00,43.9,37.8,30.75,SE,138,0.0,1.0,79,0.00,,,0.00,meteohub,2013-11-06 01:55:00,
2013-11-05 21:00:00,43.9,37.8,30.75,SE,138,0.0,1.0,79,0.00,,,0.00,meteohub,2013-11-06 02:00:00,
2013-11-05 21:05:00,43.9,37.8,30.75,SE,138,0.0,1.0,79,0.00,,,0.00,meteohub,2013-11-06 02:05:00,
2013-11-05 21:10:00,43.9,37.8,30.75,SE,139,0.0,1.0,79,0.00,,,0.00,meteohub,2013-11-06 02:10:00,
2013-11-05 21:15:00,43.9,37.8,30.75,SE,139,0.0,1.0,79,0.00,,,0.00,meteohub,2013-11-06 02:15:00,
2013-11-05 21:20:00,43.7,37.6,30.74,SE,134,0.0,1.0,79,0.00,,,0.00,meteohub,2013-11-06 02:20:00,
2013-11-05 21:25:00,43.5,37.8,30.75,SE,134,0.0,1.0,80,0.00,,,0.00,meteohub,2013-11-06 02:25:00,
2013-11-05 21:30:00,43.5,37.8,30.74,SE,137,0.0,1.0,80,0.00,,,0.00,meteohub,2013-11-06 02:30:00,
2013-11-05 21:35:00,43.5,37.8,30.74,SE,137,0.0,1.0,80,0.00,,,0.00,meteohub,2013-11-06 02:35:00,
2013-11-05 21:40:00,43.5,37.8,30.74,SE,137,0.0,1.0,80,0.00,,,0.00,meteohub,2013-11-06 02:40:00,
2013-11-05 21:45:00,43.5,37.8,30.74,SE,136,0.0,1.0,80,0.00,,,0.00,meteohub,2013-11-06 02:45:00,
2013-11-05 21:50:00,43.5,37.8,30.74,SE,137,0.0,0.0,80,0.00,,,0.00,meteohub,2013-11-06 02:50:00,
2013-11-05 21:55:00,43.3,37.9,30.74,SE,136,0.0,1.0,81,0.00,,,0.00,meteohub,2013-11-06 02:55:00,
2013-11-05 22:00:00,43.5,38.1,30.74,SE,136,0.0,1.0,81,0.00,,,0.00,meteohub,2013-11-06 03:00:00,
2013-11-05 22:05:00,43.5,38.1,30.74,SE,137,0.0,1.0,81,0.00,,,0.00,meteohub,2013-11-06 03:05:00,
2013-11-05 22:10:00,43.7,38.3,30.74,SE,137,0.0,1.0,81,0.00,,,0.00,meteohub,2013-11-06 03:10:00,
2013-11-05 22:15:00,43.9,38.5,30.73,SE,137,0.0,1.0,81,0.00,,,0.00,meteohub,2013-11-06 03:15:00,
2013-11-05 22:20:00,43.9,38.5,30.73,SE,137,0.0,1.0,81,0.00,,,0.00,meteohub,2013-11-06 03:20:00,
2013-11-05 22:25:00,43.7,38.3,30.72,SE,136,0.0,1.0,81,0.00,,,0.00,meteohub,2013-11-06 03:25:00,
2013-11-05 22:30:00,43.7,38.3,30.72,SE,136,0.0,1.0,81,0.00,,,0.00,meteohub,2013-11-06 03:30:00,
2013-11-05 22:35:00,43.5,38.1,30.72,SE,138,0.0,1.0,81,0.00,,,0.00,meteohub,2013-11-06 03:35:00,
2013-11-05 22:40:00,43.5,38.1,30.73,SE,138,0.0,1.0,81,0.00,,,0.00,meteohub,2013-11-06 03:40:00,
2013-11-05 22:45:00,43.5,38.5,30.73,SE,138,0.0,1.0,82,0.00,,,0.00,meteohub,2013-11-06 03:45:00,
2013-11-05 22:50:00,43.5,38.1,30.73,SE,138,0.0,1.0,81,0.00,,,0.00,meteohub,2013-11-06 03:50:00,
2013-11-05 22:55:00,43.5,38.5,30.73,SE,138,0.0,0.0,82,0.00,,,0.00,meteohub,2013-11-06 03:55:00,
2013-11-05 23:00:00,43.7,38.5,30.72,SE,139,0.0,0.0,82,0.00,,,0.00,meteohub,2013-11-06 04:00:00,
2013-11-05 23:05:00,43.9,38.7,30.72,SE,138,0.0,0.0,82,0.00,,,0.00,meteohub,2013-11-06 04:05:00,
2013-11-05 23:10:00,43.9,38.7,30.72,SE,137,0.0,0.0,82,0.00,,,0.00,meteohub,2013-11-06 04:10:00,
2013-11-05 23:15:00,43.9,39.0,30.72,SE,136,0.0,0.0,83,0.00,,,0.00,meteohub,2013-11-06 04:15:00,
2013-11-05 23:20:00,44.2,39.0,30.72,SE,137,0.0,1.0,82,0.00,,,0.00,meteohub,2013-11-06 04:20:00,
2013-11-05 23:26:00,44.2,39.0,30.71,SE,137,0.0,1.0,82,0.00,,,0.00,meteohub,2013-11-06 04:26:00,
2013-11-05 23:31:00,44.1,38.8,30.71,SE,137,0.0,1.0,82,0.00,,,0.00,meteohub,2013-11-06 04:31:00,
2013-11-05 23:36:00,44.1,38.8,30.71,SE,136,0.0,1.0,82,0.00,,,0.00,meteohub,2013-11-06 04:36:00,
2013-11-05 23:41:00,43.9,39.0,30.71,SE,136,0.0,1.0,83,0.00,,,0.00,meteohub,2013-11-06 04:41:00,
2013-11-05 23:46:00,43.9,39.0,30.71,SE,136,0.0,1.0,83,0.00,,,0.00,meteohub,2013-11-06 04:46:00,
2013-11-05 23:51:00,43.9,39.0,30.71,SE,138,0.0,1.0,83,0.00,,,0.00,meteohub,2013-11-06 04:51:00,
2013-11-05 23:56:00,43.7,38.8,30.71,SE,138,0.0,1.0,83,0.00,,,0.00,meteohub,2013-11-06 04:56:00,